Location: L’Abbaye
(44.3500°N, 6.5060°E)
Time: 10:45:26
(UTC+00:00)

Daily predictions for brighter satellites

Satellite Brightness Start Highest point End
(mag) Time Altitude Azimuth Time Altitude Azimuth Time Altitude Azimuth
ATLAS 2AS CENTAUR R/B 4.3 16:28:45 10° NNW 16:32:48 16° NNE 16:36:48 10° NE
UNK 3.9 16:31:43 10° NNE 16:36:16 58° E 16:40:47 10° S
SJ 16-02 3.2 16:35:14 10° ESE 16:36:39 11° E 16:38:05 10° ENE
Cosmos 1023 Rocket 4.5 16:31:59 10° SSW 16:37:09 85° ESE 16:42:17 10° NNE
DNEPR-1 R/B 4.2 16:33:12 10° NW 16:37:44 70° WSW 16:43:02 10° SSE
Cosmos 2084 Rocket 4.4 16:36:57 10° WSW 16:40:56 43° NW 16:44:58 10° NNE
ATLAS CENTAUR R/B 3.6 16:42:27 10° WNW 16:43:43 12° NW 16:45:01 10° NNW
SAR-Lupe-4 3.7 16:41:33 10° SSE 16:45:01 49° ENE 16:48:29 10° N
ARIANE 5 R/B 2.6 16:40:47 10° SSE 16:45:36 54° ENE 16:50:29 10° N
Cosmos 1441 Rocket 4.1 16:44:01 10° NNW 16:47:15 46° W 16:50:29 10° S
Cosmos 1833 Rocket 3.0 16:42:39 10° NNW 16:48:19 76° WSW 16:53:55 10° SSE
USA 215 3.3 16:46:47 10° ESE 16:53:18 78° NE 16:59:51 10° NW
IRS-P3 4.3 16:51:16 10° SE 16:56:22 49° ENE 17:01:29 10° N
Timation 1 Rocket 4.5 16:50:54 10° NNW 16:56:43 51° ENE 17:02:30 10° SE
Okean 2 Rocket 4.5 16:54:54 10° SE 16:57:46 17° E 17:00:34 10° NE
MOS 1 Rocket 3.6 16:54:38 10° SE 16:58:34 36° ENE 17:02:40 10° N
SAR-Lupe-3 4.0 16:56:42 10° NNE 16:59:17 48° ESE 17:01:50 10° S
Timation 2 Rocket 4.2 16:53:34 10° SSW 17:00:20 66° ESE 17:07:08 10° NNE
ATLAS 5 CENTAUR R/B 2.3 16:57:30 10° NW 17:01:59 66° SW 17:07:33 10° SSE
SJ-6F 4.4 17:03:14 10° SSE 17:07:01 51° ENE 17:10:51 10° N
Cosmos 2233 Rocket 4.4 17:01:00 10° SSW 17:07:15 70° W 17:13:36 10° N
Cosmos 407 Rocket 3.4 17:03:19 10° SSW 17:08:30 77° ESE 17:13:39 10° NNE
Cosmos 2061 Rocket 4.3 17:03:28 10° SSW 17:09:46 74° W 17:16:02 10° N
RESURS DK-1 2.3 17:06:48 10° NNW 17:10:46 58° ENE 17:14:41 10° SE
Cosmos 1602 3.9 17:08:14 10° NNE 17:10:59 29° ENE 17:13:41 10° SE
CZ-2D R/B 2.8 17:11:45 10° S 17:14:53 79° WSW 17:18:04 10° NNW
ISS -3.5 17:11:49 10° WSW 17:15:08 61° NNW 17:17:12 21° NE
Cosmos 1869 2.9 17:12:24 10° S 17:15:55 88° E 17:19:26 10° N
ERS-1 4.5 17:11:36 10° SSE 17:16:46 85° ENE 17:21:54 10° NNW
SPOT 1/Viking Rocket 3.8 17:12:40 10° SE 17:17:32 44° ENE 17:22:28 10° N
SJ-12 3.9 17:17:53 10° S 17:21:40 73° WSW 17:25:28 10° NNW
Cosmos 1464 Rocket 4.2 17:17:10 10° SSE 17:23:09 48° E 17:29:07 10° NNE
COSMO-SKYMED 1 3.2 17:21:26 17° NE 17:23:56 31° E 17:27:36 10° SSE
AQUARIUS 4.1 17:21:01 10° SSE 17:25:25 88° WSW 17:29:52 10° NNW
SL-12 R/B(2) 4.3 17:18:47 10° SW 17:26:39 87° NW 17:36:20 10° NE
BREEZE-M DEB (TANK) 2.5 17:27:09 10° W 17:29:37 58° NNW 17:32:21 23° ENE
Cosmos 1400 Rocket 3.2 17:26:23 10° SSE 17:29:53 36° E 17:31:12 27° NE
Cosmos 540 Rocket 3.4 17:25:42 10° NNW 17:30:52 90° NNW 17:35:58 10° SSE
Spot 4 Rocket 4.2 17:26:28 10° SE 17:31:21 49° ENE 17:36:16 10° N
Cosmos 1975 Rocket 4.3 17:29:52 10° NNW 17:34:00 43° W 17:38:08 10° SSW
Cosmos 1812 2.0 17:32:25 10° SSW 17:35:19 77° W 17:37:34 15° N
Cosmos 1763 Rocket 3.8 17:31:09 10° NNW 17:36:20 69° WSW 17:41:24 10° S
Cosmos 2034 Rocket 4.3 17:30:44 10° SSE 17:36:25 40° E 17:42:12 10° NNE
Cosmos 2151 Rocket 3.5 17:36:01 10° S 17:40:26 62° E 17:44:54 10° NNE
Cosmos 44 Rocket 3.4 17:38:52 10° SW 17:43:37 72° NW 17:47:06 19° NNE
Cosmos 2058 2.6 17:40:08 10° N 17:44:07 84° E 17:48:05 10° S
Cosmos 1943 Rocket 2.6 17:42:53 10° SW 17:48:27 61° WNW 17:53:59 10° NNE
Okean 1 Rocket 3.2 17:46:07 10° SSE 17:50:21 49° E 17:51:43 36° NE
CZ-2D R/B 3.3 17:46:20 10° SSE 17:50:27 85° ENE 17:54:41 10° NNW
SJ-7 4.0 17:46:51 10° SSE 17:50:29 66° ENE 17:54:09 10° N
SKYMED 2 3.5 17:46:14 10° NNE 17:50:36 90° NNW 17:54:57 10° SSW
IRAS Rocket 4.1 17:45:18 10° SSE 17:50:49 73° ENE 17:56:21 10° NNW
Sich 1 Rocket 3.7 17:46:59 10° S 17:51:23 53° E 17:53:29 28° NNE
PSLV R/B 3.3 17:48:04 10° SSE 17:52:03 61° ENE 17:56:02 10° N
Helios 1A Rocket 2.2 17:51:57 65° ENE 17:52:11 68° ESE 17:55:32 10° S
Cosmos 1092 Rocket 4.4 17:47:06 10° N 17:52:50 36° ENE 17:54:59 28° ESE
Cosmos 2082 Rocket 2.1 17:49:25 10° NNW 17:55:04 84° ENE 18:00:42 10° SSE
Cosmos 1072 Rocket 4.4 17:50:10 10° S 17:56:20 88° W 18:02:29 10° N
Cosmos 2278 Rocket 2.8 17:51:43 10° SW 17:57:15 55° WNW 18:02:47 10° NNE
Meteor 2-1 Rocket 4.5 17:51:46 10° SSE 17:57:24 49° E 18:02:22 14° NNE
NOAA 6 4.0 17:53:43 10° SSE 17:58:45 56° ENE 18:03:46 10° N
Cosmos 2026 Rocket 4.1 17:53:36 10° N 17:59:26 45° ENE 18:05:17 10° SSE
Aureole 3 Rocket 3.9 17:57:19 10° SW 18:00:07 33° WNW 18:03:03 10° N
BREEZE-M DEB (TANK) 3.3 17:58:29 10° W 18:01:19 65° NNW 18:03:16 37° NE
BREEZE-M DEB (TANK) 3.8 17:59:49 10° W 18:02:29 42° N 18:04:09 31° NE
Geosat 4.1 18:04:10 47° ENE 18:04:40 49° NE 18:09:29 10° NNW
BREEZE-M DEB (TANK) 4.3 17:49:46 10° WNW 18:05:43 88° SSW 18:07:58 39° ESE
Cosmos 2369 Rocket 3.9 18:02:59 10° SSE 18:04:20 16° SE 18:04:20 16° SE
Cosmos 2251 Rocket 4.0 18:02:44 10° SSW 18:07:57 61° WNW 18:12:38 13° NNE
YAOGAN 1 2.5 18:05:40 10° S 18:09:54 81° WSW 18:14:12 10° NNW
Cosmos 371 Rocket 3.1 18:06:41 10° SSW 18:11:29 83° ESE 18:12:52 47° NNE
Cosmos 304 Rocket 3.6 18:07:50 10° SSW 18:12:34 88° ESE 18:13:57 47° NNE
SL-19 R/B 4.1 18:08:52 10° SSE 18:14:05 82° WSW 18:19:20 10° NNW
SJ 16-02 1.5 18:09:52 10° SSW 18:14:09 68° WNW 18:15:41 38° N
Cosmos 841 Rocket 3.3 18:10:51 10° NNW 18:16:06 71° ENE 18:17:16 53° SE
Nadezhda 4 Rocket 4.2 18:15:14 10° NNW 18:21:30 71° W 18:27:39 10° S
Resurs 1-3 3.9 18:17:39 10° S 18:21:54 64° W 18:26:11 10° NNW
Cosmos 1862 4.3 18:20:16 10° NNW 18:23:42 41° W 18:27:07 10° SSW
ATLAS 2AS CENTAUR R/B 3.3 18:19:39 10° NNW 18:25:35 36° NNE 18:25:35 36° NNE
COSMOS 2406 3.0 18:22:09 10° NNW 18:27:52 83° ENE 18:29:08 56° SE
Cosmos 1656 Rocket 3.5 18:22:47 10° SSW 18:28:17 74° ESE 18:28:33 72° E
Cosmos 1627 Rocket 4.3 18:23:51 10° N 18:30:00 74° E 18:36:10 10° SSE
Okean 2 Rocket 4.1 18:31:10 10° SSW 18:35:21 43° WNW 18:37:52 21° NNW
Cosmos 676 Rocket 4.5 18:36:31 10° SSW 18:41:45 60° WNW 18:43:15 43° N
Resurs 01 Rocket 4.1 18:46:22 13° NNW 18:46:22 13° NNW 18:46:47 10° NNW
Cosmos 2344 3.9 18:36:15 10° NW 18:44:18 73° NE 18:47:31 47° ESE
Meteor 2-3 Rocket 3.9 18:41:37 10° NNW 18:47:18 72° W 18:49:59 32° S
ISS -0.6 18:49:32 10° WNW 18:50:07 13° WNW 18:50:07 13° WNW
USA 281 3.4 19:02:00 59° N 19:02:00 59° N 19:07:19 10° NNW
Cosmos 1634 Rocket 4.4 19:02:44 10° SSW 19:17:45 - N 19:07:38 55° SW
ATLAS 2AS CENTAUR R/B 4.5 20:10:27 10° NW 20:13:01 24° NW 20:13:01 24° NW
